When you browse on this site, cookies collect data to enhance your experience and personalize the content and advertising you see.
Visit our Privacy Policy to learn more. By continuing to use the site, you agree to this use of cookies and data.
  • In Germany
  • List of Countries
  • For 7 days
  • Water Temperature
  • Satellite Maps
  • Weather Map
  • Weather Widgets
  • user-avatar
    Login

    Hourly Weather Vitebsk

    Today, 19 June, Wednesday

    Time Temperature Precipitation Wind Pressure Humidity
    00:00 +15°C° 0 mm 1 mps 749 mmHg 84%
    01:00 +14°C° 0 mm 1 mps 749 mmHg 86%
    02:00 +14°C° 0 mm 1 mps 749 mmHg 88%
    03:00 +14°C° 0 mm 1 mps 749 mmHg 87%
    04:00 +15°C° 0 mm 1 mps 749 mmHg 87%
    05:00 +15°C° 0 mm 1 mps 749 mmHg 86%
    06:00 +18°C° 0 mm 1 mps 749 mmHg 80%
    07:00 +20°C° 0 mm 1 mps 749 mmHg 74%
    08:00 +20°C° 0 mm 0 mps 749 mmHg 68%
    09:00 +23°C° 0 mm 1 mps 749 mmHg 63%
    10:00 +24°C° 0 mm 1 mps 749 mmHg 58%
    11:00 +26°C° 0 mm 1 mps 749 mmHg 53%
    12:00 +26°C° 0 mm 1 mps 749 mmHg 53%
    13:00 +26°C° 0 mm 1 mps 749 mmHg 52%
    14:00 +26°C° 0 mm 1 mps 749 mmHg 51%
    15:00 +26°C° 0 mm 1 mps 749 mmHg 53%
    16:00 +26°C° 0 mm 1 mps 748 mmHg 55%
    17:00 +26°C° 0 mm 1 mps 748 mmHg 57%
    18:00 +24°C° 0 mm 1 mps 748 mmHg 64%
    19:00 +22°C° 0 mm 1 mps 748 mmHg 70%
    20:00 +21°C° 0 mm 1 mps 748 mmHg 77%
    21:00 +20°C° 0 mm 1 mps 748 mmHg 80%
    22:00 +19°C° 0 mm 1 mps 748 mmHg 83%
    23:00 +18°C° 0 mm 1 mps 748 mmHg 86%

    Tomorrow, 20 June, Thursday

    Time Temperature Precipitation Wind Pressure Humidity
    00:00 +16°C° 0 mm 1 mps 748 mmHg 87%
    01:00 +16°C° 0 mm 1 mps 748 mmHg 87%
    02:00 +15°C° 0 mm 1 mps 748 mmHg 88%
    03:00 +15°C° 0 mm 1 mps 748 mmHg 88%
    04:00 +16°C° 0 mm 1 mps 748 mmHg 87%
    05:00 +16°C° 0 mm 2 mps 748 mmHg 87%
    06:00 +18°C° 0 mm 2 mps 748 mmHg 82%
    07:00 +20°C° 0 mm 2 mps 748 mmHg 77%
    08:00 +21°C° 0 mm 2 mps 748 mmHg 72%
    09:00 +24°C° 0 mm 3 mps 748 mmHg 68%
    10:00 +25°C° 0 mm 3 mps 748 mmHg 63%
    11:00 +26°C° 0 mm 3 mps 748 mmHg 59%
    12:00 +26°C° 0 mm 3 mps 748 mmHg 59%
    13:00 +26°C° 0 mm 3 mps 747 mmHg 60%
    14:00 +26°C° 0 mm 4 mps 747 mmHg 60%
    15:00 +26°C° 0 mm 3 mps 747 mmHg 62%
    16:00 +26°C° 0 mm 3 mps 747 mmHg 65%
    17:00 +26°C° 0 mm 3 mps 747 mmHg 67%
    18:00 +25°C° 0 mm 3 mps 747 mmHg 72%
    19:00 +23°C° 0 mm 2 mps 746 mmHg 78%
    20:00 +21°C° 0 mm 2 mps 746 mmHg 83%
    21:00 +20°C° 0 mm 2 mps 746 mmHg 83%
    22:00 +20°C° 0 mm 3 mps 746 mmHg 82%
    23:00 +19°C° 0 mm 3 mps 746 mmHg 82%

    Day after tomorrow, 21 June, Friday

    Time Temperature Precipitation Wind Pressure Humidity
    00:00 +19°C° 0 mm 3 mps 746 mmHg 80%
    01:00 +19°C° 0 mm 3 mps 746 mmHg 79%
    02:00 +20°C° 0 mm 3 mps 746 mmHg 77%
    03:00 +19°C° 0.5 mm 3 mps 746 mmHg 83%
    04:00 +19°C° 0.5 mm 3 mps 746 mmHg 89%
    05:00 +18°C° 0.5 mm 4 mps 746 mmHg 96%
    06:00 +19°C° 0.5 mm 4 mps 746 mmHg 95%
    07:00 +20°C° 0.5 mm 4 mps 746 mmHg 94%
    08:00 +21°C° 0.5 mm 4 mps 746 mmHg 94%
    09:00 +21°C° 0.4 mm 4 mps 746 mmHg 93%
    10:00 +22°C° 0.4 mm 4 mps 746 mmHg 91%
    11:00 +22°C° 0.4 mm 3 mps 746 mmHg 90%
    12:00 +23°C° 1.2 mm 4 mps 746 mmHg 89%
    13:00 +23°C° 1.2 mm 4 mps 746 mmHg 87%
    14:00 +25°C° 1.2 mm 4 mps 746 mmHg 86%
    15:00 +25°C° 0.8 mm 3 mps 745 mmHg 87%
    16:00 +25°C° 0.8 mm 3 mps 745 mmHg 87%
    17:00 +25°C° 0.8 mm 3 mps 745 mmHg 88%
    18:00 +24°C° 0.5 mm 3 mps 745 mmHg 89%
    19:00 +24°C° 0.5 mm 3 mps 745 mmHg 89%
    20:00 +22°C° 0.5 mm 3 mps 745 mmHg 90%
    21:00 +21°C° 0.3 mm 3 mps 745 mmHg 92%
    22:00 +21°C° 0.3 mm 2 mps 745 mmHg 93%
    23:00 +20°C° 0.3 mm 2 mps 745 mmHg 94%

    22 June, Saturday

    Time Temperature Precipitation Wind Pressure Humidity
    00:00 +20°C° 0 mm 2 mps 745 mmHg 95%
    01:00 +20°C° 0 mm 2 mps 745 mmHg 95%
    02:00 +19°C° 0 mm 2 mps 745 mmHg 96%
    03:00 +20°C° 0.6 mm 2 mps 745 mmHg 96%
    04:00 +20°C° 0.6 mm 2 mps 745 mmHg 97%
    05:00 +20°C° 0.6 mm 2 mps 745 mmHg 97%
    06:00 +21°C° 0.2 mm 2 mps 745 mmHg 95%
    07:00 +23°C° 0.2 mm 2 mps 745 mmHg 93%
    08:00 +24°C° 0.2 mm 3 mps 745 mmHg 91%
    09:00 +25°C° 0.8 mm 2 mps 746 mmHg 88%
    10:00 +26°C° 0.8 mm 2 mps 746 mmHg 86%
    11:00 +26°C° 0.8 mm 2 mps 746 mmHg 84%
    12:00 +27°C° 1.3 mm 2 mps 746 mmHg 83%
    13:00 +27°C° 1.3 mm 2 mps 746 mmHg 81%
    14:00 +27°C° 1.3 mm 2 mps 746 mmHg 80%
    15:00 +27°C° 1.1 mm 2 mps 746 mmHg 83%
    16:00 +26°C° 1.1 mm 2 mps 746 mmHg 85%
    17:00 +25°C° 1.1 mm 2 mps 746 mmHg 88%
    18:00 +24°C° 0.2 mm 2 mps 746 mmHg 90%
    19:00 +23°C° 0.2 mm 2 mps 747 mmHg 93%
    20:00 +21°C° 0.2 mm 2 mps 747 mmHg 95%
    21:00 +21°C° 0 mm 2 mps 747 mmHg 95%
    22:00 +20°C° 0 mm 2 mps 747 mmHg 96%
    23:00 +19°C° 0 mm 2 mps 747 mmHg 96%

    23 June, Sunday

    Time Temperature Precipitation Wind Pressure Humidity
    00:00 +19°C° 0 mm 2 mps 747 mmHg 96%
    01:00 +18°C° 0 mm 3 mps 748 mmHg 96%
    02:00 +17°C° 0 mm 3 mps 748 mmHg 96%
    03:00 +17°C° 0 mm 3 mps 748 mmHg 95%
    04:00 +17°C° 0 mm 3 mps 748 mmHg 95%
    05:00 +18°C° 0 mm 3 mps 748 mmHg 94%
    06:00 +19°C° 0.5 mm 3 mps 748 mmHg 93%
    07:00 +20°C° 0.5 mm 4 mps 748 mmHg 92%
    08:00 +21°C° 0.5 mm 4 mps 748 mmHg 90%
    09:00 +22°C° 0.3 mm 3 mps 748 mmHg 88%
    10:00 +24°C° 0.3 mm 3 mps 748 mmHg 86%
    11:00 +25°C° 0.3 mm 3 mps 748 mmHg 84%
    12:00 +26°C° 1.3 mm 3 mps 747 mmHg 80%
    13:00 +27°C° 1.3 mm 3 mps 747 mmHg 77%
    14:00 +28°C° 1.3 mm 3 mps 747 mmHg 73%
    15:00 +27°C° 1.7 mm 3 mps 746 mmHg 78%
    16:00 +25°C° 1.7 mm 3 mps 746 mmHg 83%
    17:00 +24°C° 1.7 mm 2 mps 746 mmHg 88%
    18:00 +23°C° 0.5 mm 2 mps 746 mmHg 89%
    19:00 +23°C° 0.5 mm 2 mps 745 mmHg 90%
    20:00 +21°C° 0.5 mm 2 mps 745 mmHg 92%
    21:00 +20°C° 4.2 mm 2 mps 745 mmHg 94%
    22:00 +20°C° 4.2 mm 2 mps 745 mmHg 95%
    23:00 +20°C° 4.2 mm 2 mps 745 mmHg 97%

    24 June, Monday

    Time Temperature Precipitation Wind Pressure Humidity
    00:00 +20°C° 0.4 mm 2 mps 745 mmHg 97%
    01:00 +19°C° 0.4 mm 2 mps 745 mmHg 96%
    02:00 +19°C° 0.4 mm 2 mps 745 mmHg 96%
    03:00 +19°C° 0.2 mm 2 mps 745 mmHg 96%
    04:00 +19°C° 0.2 mm 2 mps 745 mmHg 96%
    05:00 +19°C° 0.2 mm 2 mps 745 mmHg 97%
    06:00 +21°C° 0.2 mm 2 mps 745 mmHg 93%
    07:00 +23°C° 0.2 mm 2 mps 745 mmHg 90%
    08:00 +24°C° 0.2 mm 1 mps 745 mmHg 87%
    09:00 +25°C° 1.6 mm 1 mps 746 mmHg 82%
    10:00 +26°C° 1.6 mm 1 mps 746 mmHg 77%
    11:00 +27°C° 1.6 mm 1 mps 746 mmHg 72%
    12:00 +27°C° 1.9 mm 2 mps 746 mmHg 76%
    13:00 +27°C° 1.9 mm 2 mps 746 mmHg 79%
    14:00 +26°C° 1.9 mm 3 mps 746 mmHg 82%
    15:00 +24°C° 0.9 mm 3 mps 746 mmHg 87%
    16:00 +22°C° 0.9 mm 4 mps 746 mmHg 91%
    17:00 +20°C° 0.9 mm 5 mps 746 mmHg 95%
    18:00 +19°C° 0.1 mm 5 mps 746 mmHg 95%
    19:00 +17°C° 0.1 mm 5 mps 747 mmHg 94%
    20:00 +16°C° 0.1 mm 5 mps 747 mmHg 94%
    21:00 +16°C° 0.2 mm 5 mps 747 mmHg 94%
    22:00 +15°C° 0.2 mm 5 mps 748 mmHg 93%
    23:00 +15°C° 0.2 mm 4 mps 748 mmHg 92%
    Show more